COSMOS 1275 DEB, 17793

Orbit data source: Space-Track

COSMOS 1275 DEB, 17793 is space debris in LEO originally from a launch on Thu, 04 Jun 1981 UTC launched from the Plesetsk Missile And Space Complex (PKMTR). Debris objects in space refer to the collection of defunct objects orbiting the Earth. Examples of debris include non-operational satellites, rocket bodies, and fragments generated from explosions, collisions, or faulty payload assembly.

Loading next visibility...
Identifier
17793, 1981-053LP
Orbit
LEO
Country
Flag of CISCIS
Related business
Manufacturer
Unknown
Mission
Spacecraft
Bus & Motor
Unknown
Mass
Unknown
Launch date (UTC)
1981-06-04 (44 years ago)
Launch vehicle
Unknown
Launch site
Plesetsk Missile And Space Complex (PKMTR)
Object type
Payload
Rocket body
Debris
Shape & HBR
Unknown shape, 0.1 m
Radar Cross Section
Small (<0.1 m²)

Expand to show TLE details & history
Last TLE update: 3 days ago

TLE from 3 days ago
0 COSMOS 1275 DEB
1 17793U 81053LP  25283.81870314  .00000800  00000-0  13230-2 0  9995
2 17793  83.1454 300.6679 0270711  86.3021  93.5559 13.32200789964025
Epoch: 2025-10-10T19:38Z
TLE epoch observation values (Epoch: 2025-10-10T19:38:55.951Z)
Latitude
-3.05518°
Longitude
166.64144°
Altitude
1,159.864 km
Speed
7.264 km/s
True Right ascension
08h 04m 08s
True Declination
-3° 02' 16"
Sunlit
Object was in daylight at epoch
Visualization orbit readout
Latitude
Unknown
Longitude
Unknown
Altitude
Unknown
Speed
Unknown
Apparent Right ascension
Unknown
Apparent Declination
Unknown
Sunlit
N/A
Visualization observer readout
Local Sidereal Time
18:35:49
Azimuth
Unknown
Elevation
Unknown
Doppler factor
Unknown
Orbital elements
Apogee altitude
1,339.079 km
Perigee altitude
932.264 km
Semi-major axis
7,513.808 km
Eccentricity
0.02707
Inclination
83.1454°
RAAN
300.6679°
Arg. of periapsis
86.3021°
True anomaly
96.64407°
Mean anomaly
93.5559°
Eccentric anomaly
95.10082°
Mean motion
3.33237 °/min
Orbital period
108.03 mins
BSTAR
0.001323
Loading maneuver chart data...
Computing Atmospheric mass density...

Documentation

Showing up to 5 results
|